Frankfort, MI

6:51 AM EST on November 25, 2017 (GMT -0500)
Frankfort

Weather History for KFKS - May, 2014

Change the Weather History Date:

Sunday, May 4, 2014

  Actual Average (KMBL) Record (KMBL)
Temperature  
Mean Temperature 42 °F -  
Max Temperature 50 °F 60 °F 84 °F (1949)
Min Temperature 33 °F 38 °F 24 °F (1966)
Degree Days  
Heating Degree Days 24    
Moisture  
Dew Point 34 °F    
Average Humidity 76    
Maximum Humidity 94    
Minimum Humidity 55    
Precipitation  
Precipitation 0.00 in - - ()
Sea Level Pressure  
Sea Level Pressure 29.98 in    
Wind  
Wind Speed 5 mph (NW)    
Max Wind Speed 16 mph    
Max Gust Speed 24 mph    
Visibility 10 miles    
Events Rain    
Averages and records for this station are not official NWS values.
T = Trace of Precipitation, MM = Missing Value Source: NWS Daily Summary

Daily Weather History Graph

Daily Weather History Graph

Search for Another Location

Airport or City:

Trip Planner

Search our weather history database for the weather conditions in past years. The results will help you decide how hot, cold, wet, or windy it might be!

Date:

Astronomy

May. 04, 2014 Rise Set
Actual Time 6:30 AM EDT 8:53 PM EDT
Civil Twilight 5:58 AM EDT 9:25 PM EDT
Nautical Twilight 5:17 AM EDT 10:06 PM EDT
Astronomical Twilight 4:32 AM EDT 10:52 PM EDT
Moon 10:53 AM EDT (5/4) 12:59 AM EDT (5/4)
Length of Visible Light 15h 27m
Length of Day
14h 22m
Waxing Crescent, 27% of the Moon is Illuminated
May 4
Waxing Crescent
May 6
First Quarter
May 14
Full
May 21
Last Quarter
May 28
New

Hourly Weather History & Observations

Time (EDT) Temp. Windchill Dew Point Humidity Pressure Visibility Wind Dir Wind Speed Gust Speed Precip Events Conditions
12:14 AM 33.8 °F - 31.6 °F 92% 29.81 in 10.0 mi Calm Calm - N/A   Scattered Clouds
12:34 AM 33.8 °F - 31.5 °F 91% 29.81 in 10.0 mi Calm Calm - N/A   Scattered Clouds
12:54 AM 33.4 °F - 31.6 °F 93% 29.81 in 10.0 mi Calm Calm - N/A   Mostly Cloudy
1:14 AM 33.8 °F - 32.0 °F 93% 29.81 in 10.0 mi Calm Calm - N/A   Scattered Clouds
1:34 AM 33.6 °F - 32.0 °F 94% 29.81 in 10.0 mi Calm Calm - N/A   Mostly Cloudy
1:55 AM 34.0 °F - 32.0 °F 92% 29.81 in 10.0 mi Calm Calm - N/A   Overcast
2:15 AM 35.6 °F - 32.7 °F 89% 29.81 in 10.0 mi Calm Calm - N/A   Overcast
2:35 AM 35.1 °F - 32.9 °F 92% 29.81 in 10.0 mi Calm Calm - N/A   Overcast
2:55 AM 34.7 °F - 32.9 °F 93% 29.80 in 10.0 mi Calm Calm - N/A   Overcast
3:15 AM 34.3 °F - 32.4 °F 92% 29.80 in 10.0 mi Calm Calm - N/A   Scattered Clouds
3:35 AM 33.8 °F - 32.0 °F 93% 29.80 in 10.0 mi Calm Calm - N/A   Clear
3:55 AM 34.0 °F - 32.0 °F 92% 29.80 in 10.0 mi Calm Calm - N/A   Mostly Cloudy
4:15 AM 37.6 °F 33.1 °F 35.4 °F 92% 29.83 in 10.0 mi NNW 5.8 mph - N/A   Light Drizzle
4:35 AM 38.7 °F 32.4 °F 35.6 °F 89% 29.84 in 10.0 mi West 9.2 mph - N/A   Overcast
4:56 AM 40.1 °F 38.0 °F 34.9 °F 82% 29.84 in 10.0 mi NNW 3.5 mph - N/A Rain Light Rain
5:16 AM 39.6 °F 35.4 °F 34.3 °F 82% 29.85 in 10.0 mi NNW 5.8 mph - N/A Rain Rain
5:31 AM 39.2 °F 34.2 °F 35.4 °F 86% 29.85 in 5.0 mi North 6.9 mph - N/A Rain Light Rain
5:51 AM 38.5 °F 30.3 °F 35.6 °F 89% 29.87 in 10.0 mi NNW 13.8 mph 19.6 mph N/A Rain Light Rain
6:12 AM 35.6 °F 28.0 °F 33.3 °F 91% 29.87 in 2.0 mi North 10.4 mph 19.6 mph N/A Rain Light Rain
6:32 AM 36.0 °F 28.5 °F 34.2 °F 93% 29.89 in 10.0 mi North 10.4 mph - N/A   Overcast
6:52 AM 36.0 °F 29.0 °F 34.0 °F 93% 29.89 in 10.0 mi North 9.2 mph - N/A   Overcast
7:13 AM 35.6 °F 30.7 °F 33.3 °F 91% 29.90 in 10.0 mi North 5.8 mph - N/A   Scattered Clouds
7:33 AM 35.8 °F 30.9 °F 33.4 °F 91% 29.91 in 10.0 mi North 5.8 mph - N/A   Clear
7:53 AM 36.5 °F 32.7 °F 34.0 °F 91% 29.92 in 10.0 mi NNW 4.6 mph - N/A   Clear
8:15 AM 37.8 °F 32.5 °F 34.3 °F 87% 29.93 in 10.0 mi NNW 6.9 mph - N/A   Clear
8:31 AM 38.5 °F 32.1 °F 34.7 °F 86% 29.93 in 10.0 mi NW 9.2 mph - N/A   Clear
8:52 AM 38.8 °F 32.6 °F 34.9 °F 86% 29.94 in 10.0 mi WNW 9.2 mph - N/A   Clear
9:12 AM 39.2 °F 32.5 °F 34.9 °F 84% 29.94 in 10.0 mi West 10.4 mph - N/A   Scattered Clouds
9:33 AM 40.3 °F 32.6 °F 34.7 °F 80% 29.95 in 10.0 mi NW 13.8 mph 19.6 mph N/A   Scattered Clouds
9:53 AM 41.2 °F 33.0 °F 34.5 °F 77% 29.95 in 10.0 mi WNW 16.1 mph 21.9 mph N/A   Clear
10:13 AM 42.1 °F 34.5 °F 34.0 °F 73% 29.96 in 10.0 mi WNW 15.0 mph 19.6 mph N/A   Clear
10:33 AM 42.6 °F 34.9 °F 34.3 °F 73% 29.97 in 10.0 mi WNW 16.1 mph 19.6 mph N/A   Clear
10:54 AM 42.6 °F 34.9 °F 34.2 °F 72% 29.98 in 10.0 mi WNW 16.1 mph - N/A   Clear
11:14 AM 42.4 °F 36.1 °F 33.8 °F 71% 30.00 in 10.0 mi NW 11.5 mph 20.7 mph N/A   Scattered Clouds
11:34 AM 43.0 °F 35.7 °F 33.8 °F 70% 30.01 in 10.0 mi WNW 15.0 mph 21.9 mph N/A   Scattered Clouds
11:54 AM 44.2 °F 38.8 °F 34.2 °F 68% 30.01 in 10.0 mi NW 10.4 mph 18.4 mph N/A   Clear
12:15 PM 44.1 °F 37.4 °F 33.3 °F 66% 30.02 in 10.0 mi NNW 13.8 mph 21.9 mph N/A   Clear
12:36 PM 45.1 °F 39.1 °F 33.6 °F 64% 30.03 in 10.0 mi NNW 12.7 mph 19.6 mph N/A   Clear
12:51 PM 45.5 °F 40.3 °F 33.6 °F 63% 30.03 in 10.0 mi NNW 10.4 mph 21.9 mph N/A   Clear
1:12 PM 46.4 °F 40.4 °F 33.4 °F 61% 30.03 in 10.0 mi NW 13.8 mph 24.2 mph N/A   Clear
1:32 PM 46.4 °F 40.7 °F 33.1 °F 60% 30.03 in 10.0 mi North 12.7 mph 19.6 mph N/A   Scattered Clouds
1:53 PM 48.6 °F - 34.3 °F 58% 30.04 in 10.0 mi WNW 12.7 mph - N/A   Scattered Clouds
2:13 PM 45.9 °F 41.2 °F 33.6 °F 62% 30.04 in 10.0 mi West 9.2 mph - N/A   Mostly Cloudy
2:33 PM 45.9 °F 42.3 °F 33.4 °F 62% 30.05 in 10.0 mi West 6.9 mph - N/A   Overcast
2:53 PM 48.4 °F - 34.2 °F 58% 30.05 in 10.0 mi West 9.2 mph - N/A   Overcast
3:14 PM 49.5 °F - 34.0 °F 55% 30.05 in 10.0 mi WNW 5.8 mph - N/A   Mostly Cloudy
3:35 PM 49.1 °F - 33.4 °F 55% 30.05 in 10.0 mi WNW 8.1 mph - N/A   Scattered Clouds
3:55 PM 49.1 °F - 33.4 °F 55% 30.05 in 10.0 mi NW 6.9 mph - N/A   Clear
4:15 PM 49.5 °F - 33.8 °F 55% 30.05 in 10.0 mi West 9.2 mph - N/A   Clear
4:36 PM 49.6 °F - 34.0 °F 55% 30.05 in 10.0 mi West 9.2 mph - N/A   Clear
4:51 PM 48.9 °F - 33.8 °F 56% 30.05 in 10.0 mi West 8.1 mph - N/A   Clear
5:12 PM 48.0 °F - 33.6 °F 57% 30.05 in 10.0 mi West 6.9 mph - N/A   Clear
5:32 PM 50.0 °F - 34.3 °F 55% 30.05 in 10.0 mi NNW 9.2 mph - N/A   Clear
5:52 PM 48.6 °F - 33.6 °F 56% 30.06 in 10.0 mi North 9.2 mph - N/A   Clear
6:12 PM 48.2 °F - 33.6 °F 57% 30.07 in 10.0 mi NNW 6.9 mph - N/A   Clear
6:32 PM 46.8 °F - 34.0 °F 61% 30.07 in 10.0 mi NNW 5.8 mph - N/A   Clear
6:53 PM 46.2 °F 42.2 °F 34.3 °F 63% 30.07 in 10.0 mi North 8.1 mph 16.1 mph N/A   Clear
7:13 PM 44.8 °F 40.4 °F 34.0 °F 66% 30.08 in 10.0 mi North 8.1 mph - N/A   Clear
7:33 PM 43.9 °F 38.8 °F 33.8 °F 68% 30.08 in 10.0 mi NNE 9.2 mph - N/A   Clear
7:53 PM 43.3 °F 41.7 °F 33.8 °F 69% 30.08 in 10.0 mi NE 3.5 mph - N/A   Clear
8:13 PM 42.1 °F 37.1 °F 33.4 °F 71% 30.09 in 10.0 mi NE 8.1 mph - N/A   Clear
8:33 PM 41.0 °F 35.8 °F 32.9 °F 73% 30.09 in 10.0 mi NNE 8.1 mph - N/A   Clear
8:53 PM 40.3 °F 37.1 °F 32.9 °F 75% 30.09 in 10.0 mi NNE 4.6 mph - N/A   Clear
9:13 PM 40.1 °F 36.9 °F 32.5 °F 74% 30.10 in 10.0 mi North 4.6 mph - N/A   Clear
9:33 PM 39.6 °F 37.4 °F 32.9 °F 77% 30.11 in 10.0 mi NE 3.5 mph - N/A   Clear
9:54 PM 39.2 °F - 32.9 °F 78% 30.11 in 10.0 mi Calm Calm - N/A   Clear
10:14 PM 39.0 °F - 32.7 °F 78% 30.12 in 10.0 mi Calm Calm - N/A   Clear
10:34 PM 38.5 °F - 32.7 °F 80% 30.12 in 10.0 mi Calm Calm - N/A   Clear
10:54 PM 38.3 °F - 32.9 °F 81% 30.12 in 10.0 mi Calm Calm - N/A   Clear
11:14 PM 37.9 °F - 32.4 °F 80% 30.13 in 10.0 mi Calm Calm - N/A   Clear
11:34 PM 37.6 °F - 32.5 °F 82% 30.12 in 10.0 mi Calm Calm - N/A   Clear
11:55 PM 37.4 °F - 32.4 °F 82% 30.11 in 10.0 mi Calm Calm - N/A   Clear